Time,TemperatureF,DewpointF,PressureIn,WindDirection,WindDirectionDegrees,WindSpeedMPH,WindSpeedGustMPH,Humidity,HourlyPrecipIn,Conditions,Clouds,dailyrainin,SoftwareType,DateUTC
2013-06-28 00:14:00,86.6,34.0,29.61,SE,138,0.0,1.0,15,0.00,,,0.00,weatherlink.com 1.10,2013-06-28 06:14:00,
2013-06-28 00:29:00,85.3,34.0,29.61,SE,132,0.0,1.0,16,0.00,,,0.00,weatherlink.com 1.10,2013-06-28 06:29:00,
2013-06-28 00:44:00,83.9,35.0,29.62,SE,132,1.0,1.0,17,0.00,,,0.00,weatherlink.com 1.10,2013-06-28 06:44:00,
2013-06-28 01:00:00,83.4,36.0,29.62,NE,46,0.0,3.0,18,0.00,,,0.00,weatherlink.com 1.10,2013-06-28 07:00:00,
2013-06-28 01:15:00,84.7,35.0,29.62,ESE,114,0.0,1.0,17,0.00,,,0.00,weatherlink.com 1.10,2013-06-28 07:15:00,
2013-06-28 01:30:00,86.0,33.0,29.62,SSE,150,2.0,4.0,15,0.00,,,0.00,weatherlink.com 1.10,2013-06-28 07:30:00,
2013-06-28 01:45:00,86.1,35.0,29.62,ESE,108,1.0,4.0,16,0.00,,,0.00,weatherlink.com 1.10,2013-06-28 07:45:00,
2013-06-28 02:00:00,87.9,33.0,29.61,ESE,103,2.0,5.0,14,0.00,,,0.00,weatherlink.com 1.10,2013-06-28 08:00:00,
2013-06-28 02:15:00,86.9,34.0,29.61,ESE,103,0.0,3.0,15,0.00,,,0.00,weatherlink.com 1.10,2013-06-28 08:15:00,
2013-06-28 02:30:00,84.4,35.0,29.61,SE,139,0.0,2.0,17,0.00,,,0.00,weatherlink.com 1.10,2013-06-28 08:30:00,
2013-06-28 02:45:00,83.2,35.0,29.61,ESE,118,0.0,3.0,18,0.00,,,0.00,weatherlink.com 1.10,2013-06-28 08:45:00,
2013-06-28 03:00:00,82.1,35.0,29.62,WNW,302,0.0,3.0,18,0.00,,,0.00,weatherlink.com 1.10,2013-06-28 09:00:00,
2013-06-28 03:15:00,80.8,36.0,29.63,NNW,327,0.0,2.0,20,0.00,,,0.00,weatherlink.com 1.10,2013-06-28 09:15:00,
2013-06-28 03:30:00,81.9,36.0,29.63,ESE,103,2.0,6.0,19,0.00,,,0.00,weatherlink.com 1.10,2013-06-28 09:30:00,
2013-06-28 03:45:00,84.4,39.0,29.63,ESE,103,0.0,3.0,20,0.00,,,0.00,weatherlink.com 1.10,2013-06-28 09:45:00,
2013-06-28 04:00:00,84.7,41.0,29.64,East,92,2.0,13.0,21,0.00,,,0.00,weatherlink.com 1.10,2013-06-28 10:00:00,
2013-06-28 04:15:00,84.5,44.0,29.64,East,97,7.0,13.0,24,0.00,,,0.00,weatherlink.com 1.10,2013-06-28 10:15:00,
2013-06-28 04:30:00,83.6,44.0,29.64,ENE,67,7.0,21.0,25,0.00,,,0.00,weatherlink.com 1.10,2013-06-28 10:30:00,
2013-06-28 04:45:00,82.8,46.0,29.65,ESE,104,4.0,21.0,27,0.00,,,0.00,weatherlink.com 1.10,2013-06-28 10:45:00,
2013-06-28 05:00:00,82.2,46.0,29.66,SSE,154,9.0,17.0,28,0.00,,,0.00,weatherlink.com 1.10,2013-06-28 11:00:00,
2013-06-28 05:15:00,81.4,45.0,29.66,ENE,78,5.0,21.0,28,0.00,,,0.00,weatherlink.com 1.10,2013-06-28 11:15:00,
2013-06-28 05:30:00,80.6,46.0,29.66,SSW,193,5.0,26.0,29,0.00,,,0.00,weatherlink.com 1.10,2013-06-28 11:30:00,
2013-06-28 05:45:00,79.8,46.0,29.68,ESE,103,19.0,25.0,30,0.00,,,0.00,weatherlink.com 1.10,2013-06-28 11:45:00,
2013-06-28 06:00:00,78.8,47.0,29.68,ESE,103,15.0,18.0,33,0.00,,,0.00,weatherlink.com 1.10,2013-06-28 12:00:00,
2013-06-28 06:15:00,77.7,49.0,29.68,SE,145,6.0,20.0,36,0.00,,,0.00,weatherlink.com 1.10,2013-06-28 12:15:00,
2013-06-28 06:30:00,77.1,49.0,29.68,ESE,103,8.0,22.0,37,0.00,,,0.00,weatherlink.com 1.10,2013-06-28 12:30:00,
2013-06-28 06:45:00,76.9,49.0,29.68,ESE,107,15.0,20.0,38,0.00,,,0.00,weatherlink.com 1.10,2013-06-28 12:45:00,
2013-06-28 07:00:00,76.8,49.0,29.68,ESE,107,16.0,22.0,38,0.00,,,0.00,weatherlink.com 1.10,2013-06-28 13:00:00,
2013-06-28 07:15:00,77.1,50.0,29.69,East,96,6.0,20.0,38,0.00,,,0.00,weatherlink.com 1.10,2013-06-28 13:15:00,
2013-06-28 07:30:00,77.5,49.0,29.70,ENE,76,4.0,17.0,37,0.00,,,0.00,weatherlink.com 1.10,2013-06-28 13:30:00,
2013-06-28 07:45:00,78.9,49.0,29.70,SE,125,6.0,15.0,35,0.00,,,0.00,weatherlink.com 1.10,2013-06-28 13:45:00,
2013-06-28 08:00:00,79.5,49.0,29.71,East,93,9.0,13.0,34,0.00,,,0.00,weatherlink.com 1.10,2013-06-28 14:00:00,
2013-06-28 08:16:00,81.0,48.0,29.72,ESE,120,3.0,13.0,32,0.00,,,0.00,weatherlink.com 1.10,2013-06-28 14:16:00,
2013-06-28 08:31:00,81.7,48.0,29.72,ESE,122,3.0,11.0,31,0.00,,,0.00,weatherlink.com 1.10,2013-06-28 14:31:00,
2013-06-28 08:46:00,82.7,48.0,29.71,East,98,4.0,12.0,30,0.00,,,0.00,weatherlink.com 1.10,2013-06-28 14:46:00,
2013-06-28 09:01:00,84.4,48.0,29.71,SE,133,1.0,7.0,28,0.00,,,0.00,weatherlink.com 1.10,2013-06-28 15:01:00,
2013-06-28 09:16:00,85.6,48.0,29.71,ESE,121,1.0,6.0,27,0.00,,,0.00,weatherlink.com 1.10,2013-06-28 15:16:00,
2013-06-28 09:31:00,88.4,47.0,29.71,NNW,339,1.0,2.0,24,0.00,,,0.00,weatherlink.com 1.10,2013-06-28 15:31:00,
2013-06-28 09:46:00,89.0,48.0,29.71,East,89,3.0,3.0,24,0.00,,,0.00,weatherlink.com 1.10,2013-06-28 15:46:00,
2013-06-28 10:01:00,90.4,47.0,29.71,ENE,77,0.0,5.0,22,0.00,,,0.00,weatherlink.com 1.10,2013-06-28 16:01:00,
2013-06-28 10:16:00,90.9,47.0,29.71,ESE,117,1.0,5.0,22,0.00,,,0.00,weatherlink.com 1.10,2013-06-28 16:16:00,
2013-06-28 10:31:00,91.7,47.0,29.71,NNW,339,0.0,3.0,21,0.00,,,0.00,weatherlink.com 1.10,2013-06-28 16:31:00,
2013-06-28 10:46:00,92.8,46.0,29.71,NNW,345,1.0,2.0,20,0.00,,,0.00,weatherlink.com 1.10,2013-06-28 16:46:00,
2013-06-28 11:01:00,93.6,47.0,29.71,NW,325,0.0,3.0,20,0.00,,,0.00,weatherlink.com 1.10,2013-06-28 17:01:00,
2013-06-28 11:16:00,92.9,46.0,29.70,North,360,1.0,6.0,20,0.00,,,0.00,weatherlink.com 1.10,2013-06-28 17:16:00,
2013-06-28 11:31:00,93.9,46.0,29.70,East,94,1.0,5.0,19,0.00,,,0.00,weatherlink.com 1.10,2013-06-28 17:31:00,
2013-06-28 11:46:00,95.1,45.0,29.70,ESE,120,3.0,7.0,18,0.00,,,0.00,weatherlink.com 1.10,2013-06-28 17:46:00,
2013-06-28 12:01:00,95.8,44.0,29.69,WSW,238,5.0,9.0,17,0.00,,,0.00,weatherlink.com 1.10,2013-06-28 18:01:00,
2013-06-28 12:16:00,94.8,42.0,29.69,East,84,2.0,6.0,16,0.00,,,0.00,weatherlink.com 1.10,2013-06-28 18:16:00,
2013-06-28 12:31:00,95.1,41.0,29.68,East,92,1.0,5.0,15,0.00,,,0.00,weatherlink.com 1.10,2013-06-28 18:31:00,
2013-06-28 12:46:00,96.2,43.0,29.67,WSW,250,2.0,6.0,16,0.00,,,0.00,weatherlink.com 1.10,2013-06-28 18:46:00,
2013-06-28 13:01:00,98.8,44.0,29.67,SW,235,0.0,3.0,15,0.00,,,0.00,weatherlink.com 1.10,2013-06-28 19:01:00,
2013-06-28 13:16:00,96.5,40.0,29.66,ESE,123,2.0,6.0,14,0.00,,,0.00,weatherlink.com 1.10,2013-06-28 19:16:00,
2013-06-28 13:31:00,99.2,42.0,29.65,WNW,296,2.0,4.0,14,0.00,,,0.00,weatherlink.com 1.10,2013-06-28 19:31:00,
2013-06-28 13:46:00,99.6,41.0,29.64,NW,325,0.0,3.0,13,0.00,,,0.00,weatherlink.com 1.10,2013-06-28 19:46:00,
2013-06-28 14:01:00,99.3,42.0,29.63,South,190,1.0,5.0,14,0.00,,,0.00,weatherlink.com 1.10,2013-06-28 20:01:00,
2013-06-28 14:16:00,100.3,39.0,29.63,SSE,151,1.0,6.0,12,0.00,,,0.00,weatherlink.com 1.10,2013-06-28 20:16:00,
2013-06-28 14:31:00,101.0,40.0,29.62,SSW,193,3.0,9.0,12,0.00,,,0.00,weatherlink.com 1.10,2013-06-28 20:31:00,
2013-06-28 14:46:00,100.4,41.0,29.61,SE,136,5.0,9.0,13,0.00,,,0.00,weatherlink.com 1.10,2013-06-28 20:46:00,
2013-06-28 15:01:00,97.7,43.0,29.61,SE,143,5.0,12.0,15,0.00,,,0.00,weatherlink.com 1.10,2013-06-28 21:01:00,
2013-06-28 15:16:00,95.5,44.0,29.61,East,94,6.0,16.0,17,0.00,,,0.00,weatherlink.com 1.10,2013-06-28 21:16:00,
2013-06-28 15:31:00,94.6,42.0,29.61,East,96,5.0,9.0,16,0.00,,,0.00,weatherlink.com 1.10,2013-06-28 21:31:00,
2013-06-28 15:46:00,94.8,44.0,29.60,ESE,103,6.0,12.0,17,0.00,,,0.00,weatherlink.com 1.10,2013-06-28 21:46:00,
2013-06-28 16:01:00,94.9,42.0,29.60,SW,215,4.0,12.0,16,0.00,,,0.00,weatherlink.com 1.10,2013-06-28 22:01:00,
2013-06-28 16:16:00,95.6,41.0,29.59,SE,145,5.0,14.0,15,0.00,,,0.00,weatherlink.com 1.10,2013-06-28 22:16:00,
2013-06-28 16:31:00,95.8,43.0,29.58,SE,139,5.0,12.0,16,0.00,,,0.00,weatherlink.com 1.10,2013-06-28 22:31:00,
2013-06-28 16:46:00,96.2,42.0,29.58,ESE,103,4.0,11.0,15,0.00,,,0.00,weatherlink.com 1.10,2013-06-28 22:46:00,
2013-06-28 17:01:00,96.4,42.0,29.58,East,101,4.0,13.0,15,0.00,,,0.00,weatherlink.com 1.10,2013-06-28 23:01:00,
2013-06-28 17:16:00,96.8,40.0,29.59,ENE,77,8.0,15.0,14,0.00,,,0.00,weatherlink.com 1.10,2013-06-28 23:16:00,
2013-06-28 17:31:00,96.3,42.0,29.60,SE,126,5.0,10.0,15,0.00,,,0.00,weatherlink.com 1.10,2013-06-28 23:31:00,
2013-06-28 17:46:00,95.0,41.0,29.60,East,94,6.0,10.0,15,0.00,,,0.00,weatherlink.com 1.10,2013-06-28 23:46:00,
2013-06-28 18:01:00,95.5,39.0,29.59,ESE,116,6.0,8.0,14,0.00,,,0.00,weatherlink.com 1.10,2013-06-29 00:01:00,
2013-06-28 18:16:00,92.9,42.0,29.61,NE,50,3.0,12.0,17,0.00,,,0.00,weatherlink.com 1.10,2013-06-29 00:16:00,
2013-06-28 18:31:00,89.4,43.0,29.62,NE,56,8.0,14.0,20,0.00,,,0.00,weatherlink.com 1.10,2013-06-29 00:31:00,
2013-06-28 18:46:00,88.3,46.0,29.63,NE,51,5.0,10.0,23,0.00,,,0.00,weatherlink.com 1.10,2013-06-29 00:46:00,
2013-06-28 19:02:00,86.5,45.0,29.64,North,349,12.0,13.0,23,0.00,,,0.00,weatherlink.com 1.10,2013-06-29 01:02:00,
2013-06-28 19:16:00,85.5,48.0,29.65,North,358,1.0,9.0,27,0.00,,,0.00,weatherlink.com 1.10,2013-06-29 01:16:00,
2013-06-28 19:31:00,83.3,48.0,29.67,NNW,330,1.0,10.0,29,0.00,,,0.00,weatherlink.com 1.10,2013-06-29 01:31:00,
2013-06-28 19:46:00,80.8,50.0,29.71,NNE,12,3.0,12.0,34,0.00,,,0.00,weatherlink.com 1.10,2013-06-29 01:46:00,
2013-06-28 20:16:00,79.3,51.0,29.72,North,4,6.0,22.0,37,0.00,,,0.00,weatherlink.com 1.10,2013-06-29 02:16:00,
2013-06-28 20:31:00,78.5,49.0,29.71,NNW,340,3.0,17.0,35,0.00,,,0.00,weatherlink.com 1.10,2013-06-29 02:31:00,
2013-06-28 20:46:00,79.9,47.0,29.71,NW,326,4.0,11.0,32,0.00,,,0.00,weatherlink.com 1.10,2013-06-29 02:46:00,
2013-06-28 21:01:00,79.9,48.0,29.71,North,6,1.0,9.0,33,0.00,,,0.00,weatherlink.com 1.10,2013-06-29 03:01:00,
2013-06-28 21:16:00,79.5,48.0,29.71,North,354,2.0,7.0,33,0.00,,,0.00,weatherlink.com 1.10,2013-06-29 03:16:00,
2013-06-28 21:31:00,79.9,48.0,29.71,ESE,105,0.0,3.0,33,0.00,,,0.00,weatherlink.com 1.10,2013-06-29 03:31:00,
2013-06-28 21:47:00,79.7,48.0,29.72,East,98,1.0,3.0,33,0.00,,,0.00,weatherlink.com 1.10,2013-06-29 03:47:00,
2013-06-28 22:02:00,81.6,46.0,29.70,SW,215,2.0,8.0,29,0.00,,,0.00,weatherlink.com 1.10,2013-06-29 04:02:00,
2013-06-28 22:17:00,82.9,45.0,29.68,SSE,160,2.0,8.0,26,0.00,,,0.00,weatherlink.com 1.10,2013-06-29 04:17:00,
2013-06-28 22:32:00,82.1,46.0,29.68,SSW,200,1.0,6.0,28,0.00,,,0.00,weatherlink.com 1.10,2013-06-29 04:32:00,
2013-06-28 22:47:00,82.2,46.0,29.68,WSW,247,1.0,9.0,28,0.00,,,0.00,weatherlink.com 1.10,2013-06-29 04:47:00,
2013-06-28 23:02:00,81.2,46.0,29.68,WSW,245,1.0,5.0,29,0.00,,,0.00,weatherlink.com 1.10,2013-06-29 05:02:00,
2013-06-28 23:17:00,80.3,47.0,29.68,SW,221,0.0,2.0,31,0.00,,,0.00,weatherlink.com 1.10,2013-06-29 05:17:00,
2013-06-28 23:32:00,79.8,47.0,29.69,SE,139,0.0,2.0,31,0.00,,,0.00,weatherlink.com 1.10,2013-06-29 05:32:00,
2013-06-28 23:47:00,79.5,47.0,29.69,SE,143,0.0,4.0,32,0.00,,,0.00,weatherlink.com 1.10,2013-06-29 05:47:00,